Location: Eaton Estates
(41.3089°N, 82.0057°W)
Time: 12:54:38
(UTC+00:00)

SL-16 R/B - Pass Details

Date: 17 June 2021
Orbit: 843 x 845 km, 71.0° (Epoch: 30 July)

Event Time Altitude Azimuth Distance (km) Brightness Sun altitude
Rises 02:43:17 0° 218° (SW) 3,386 5.2 -14.8°
Reaches altitude 10° 02:45:48 10° 224° (SW) 2,455 4.5 -15.1°
Maximum altitude 02:51:15 49° 299° (WNW) 1,083 3.2 -15.7°
Drops below altitude 10° 02:56:44 10° 14° (NNE) 2,472 5.2 -16.3°
Sets 02:59:17 0° 20° (NNE) 3,411 5.9 -16.6°
